EW2670 Weather Reports


Display with metric or nautical units.
time (UTC)temp
F
wind
direction
speed
MPH
gust
MPH
rain 1hr
in
rain 24hr
in
rain mn
in
humidity
%
barometer
mb
20260906180018 80 112 2.0 5.0 0.00 0.00 0.00 50 1009.5
20260906175516 80 337 2.0 5.0 0.00 0.00 0.00 54 1009.9
20260906175037 79 22 2.0 5.0 0.00 0.00 0.00 53 1009.9
20260906174537 78 315 1.0 4.0 0.00 0.00 0.00 54 1010.0
20260906174017 78 337 2.0 4.0 0.00 0.00 0.00 54 1010.1
20260906173517 79 22 1.0 4.0 0.00 0.00 0.00 54 1010.2
20260906173016 79 22 2.0 5.0 0.00 0.00 0.00 57 1010.5
20260906172516 78 112 1.0 4.0 0.00 0.00 0.00 57 1010.4
20260906172036 76 180 2.0 7.0 0.00 0.00 0.00 59 1010.5
20260906171517 77 90 3.0 6.0 0.00 0.00 0.00 57 1010.5
20260906171016 77 22 2.0 5.0 0.00 0.00 0.00 58 1010.6
20260906170516 76 45 2.0 5.0 0.00 0.00 0.00 60 1010.7
20260906170037 74 112 3.0 7.0 0.00 0.00 0.00 62 1010.5
20260906165516 75 22 3.0 5.0 0.00 0.00 0.00 60 1010.6
20260906165016 76 22 2.0 5.0 0.00 0.00 0.00 63 1010.7
20260906164516 74 112 2.0 5.0 0.00 0.00 0.00 63 1010.4
20260906164036 73 90 2.0 5.0 0.00 0.00 0.00 61 1010.4
20260906163517 75 0 1.0 3.0 0.00 0.00 0.00 61 1010.8
20260906163017 74 0 1.0 2.0 0.00 0.00 0.00 63 1010.8
20260906162516 73 292 1.0 3.0 0.00 0.00 0.00 63 1010.5
20260906162036 73 45 1.0 3.0 0.00 0.00 0.00 63 1010.4
20260906161536 73 337 3.0 6.0 0.00 0.00 0.00 63 1010.6
20260906161017 73 0 2.0 5.0 0.00 0.00 0.00 64 1010.7
20260906160517 73 0 2.0 6.0 0.00 0.00 0.00 64 1010.8
20260906160016 73 0 2.0 5.0 0.00 0.00 0.00 65 1010.6
20260906155536 72 0 2.0 6.0 0.00 0.00 0.00 67 1010.6
20260906155016 72 22 2.0 5.0 0.00 0.00 0.00 67 1010.5
20260906154517 72 337 2.0 5.0 0.00 0.00 0.00 66 1010.7
20260906154017 72 22 2.0 3.0 0.00 0.00 0.00 66 1010.7
20260906153516 71 0 2.0 5.0 0.00 0.00 0.00 69 1010.6
20260906153016 71 22 3.0 6.0 0.00 0.00 0.00 68 1010.8
20260906152518 70 22 3.0 6.0 0.00 0.00 0.00 69 1010.8
20260906152016 70 0 3.0 5.0 0.00 0.00 0.00 69 1010.9
20260906151516 70 22 2.0 6.0 0.00 0.00 0.00 70 1010.9
20260906151016 70 22 3.0 6.0 0.00 0.00 0.00 71 1010.8
20260906150516 69 22 4.0 8.0 0.00 0.00 0.00 70 1010.7
20260906150016 69 337 1.0 2.0 0.00 0.00 0.00 73 1010.9
20260906145537 67 337 1.0 4.0 0.00 0.00 0.00 74 1010.8
20260906145016 67 22 3.0 5.0 0.00 0.00 0.00 74 1010.7
20260906144516 67 22 3.0 5.0 0.00 0.00 0.00 73 1011.0
20260906144016 68 0 3.0 6.0 0.00 0.00 0.00 72 1010.9
20260906143516 68 22 4.0 7.0 0.00 0.00 0.00 73 1010.9
20260906143016 68 22 5.0 8.0 0.00 0.00 0.00 74 1011.0
20260906142537 68 22 4.0 7.0 0.00 0.00 0.00 74 1010.8
20260906142036 68 0 3.0 5.0 0.00 0.00 0.00 75 1010.9
20260906141556 67 0 4.0 6.0 0.00 0.00 0.00 75 1010.9
20260906141016 67 337 2.0 4.0 0.00 0.00 0.00 78 1011.0
20260906140516 66 337 1.0 4.0 0.00 0.00 0.00 78 1010.9
20260906140016 65 315 2.0 4.0 0.00 0.00 0.00 79 1010.9
20260906135517 65 315 1.0 3.0 0.00 0.00 0.00 80 1010.9
20260906135016 64 337 1.0 3.0 0.00 0.00 0.00 81 1011.0
20260906134516 63 0.0 2.0 0.00 0.00 0.00 83 1010.8
20260906134016 62 0.0 1.0 0.00 0.00 0.00 85 1010.9
20260906133516 61 0.0 1.0 0.00 0.00 0.00 86 1010.7
20260906133016 61 292 2.0 3.0 0.00 0.00 0.00 85 1010.7
20260906132516 61 0.0 2.0 0.00 0.00 0.00 84 1010.7
20260906132016 61 0.0 2.0 0.00 0.00 0.00 84 1010.6
20260906131536 61 0.0 2.0 0.00 0.00 0.00 84 1010.7
20260906131036 61 270 1.0 2.0 0.00 0.00 0.00 84 1010.8
20260906130516 61 270 2.0 3.0 0.00 0.00 0.00 84 1010.8
20260906130016 60 315 1.0 2.0 0.00 0.00 0.00 84 1010.7
20260906125516 60 0.0 2.0 0.00 0.00 0.00 83 1010.6
20260906125016 60 0.0 2.0 0.00 0.00 0.00 82 1010.6
20260906124516 61 270 2.0 3.0 0.00 0.00 0.00 82 1010.6
20260906124018 61 0.0 3.0 0.00 0.00 0.00 82 1010.6
20260906123516 61 0.0 3.0 0.00 0.00 0.00 82 1010.5
20260906123016 61 292 1.0 2.0 0.00 0.00 0.00 81 1010.5
20260906122537 61 0.0 1.0 0.00 0.00 0.00 81 1010.5
20260906122016 61 0.0 2.0 0.00 0.00 0.00 81 1010.4
20260906121516 60 0.0 2.0 0.00 0.00 0.00 80 1010.3
20260906121016 60 0.0 2.0 0.00 0.00 0.00 80 1010.5
20260906120516 60 0.0 2.0 0.00 0.00 0.00 80 1010.4
20260906120016 60 0.0 1.0 0.00 0.00 0.00 80 1010.4
20260906115516 60 0.0 0.0 0.00 0.00 0.00 79 1010.4
20260906115016 60 0.0 1.0 0.00 0.00 0.00 78 1010.4
20260906114515 60 0.0 1.0 0.00 0.00 0.00 78 1010.4
20260906114036 60 0.0 2.0 0.00 0.00 0.00 78 1010.6
20260906113515 60 0.0 2.0 0.00 0.00 0.00 77 1010.6
20260906113016 61 0.0 0.0 0.00 0.00 0.00 76 1010.6
20260906112516 61 0.0 0.0 0.00 0.00 0.00 76 1010.6
20260906112036 61 0.0 2.0 0.00 0.00 0.00 75 1010.7
20260906111515 61 0.0 0.0 0.00 0.00 0.00 75 1010.6
20260906111016 61 0.0 1.0 0.00 0.00 0.00 74 1010.5
20260906110515 61 0.0 2.0 0.00 0.00 0.00 74 1010.5
20260906110037 60 315 1.0 2.0 0.00 0.00 0.00 75 1010.4
20260906105515 60 0.0 2.0 0.00 0.00 0.00 75 1010.5
20260906105036 60 0.0 0.0 0.00 0.00 0.00 74 1010.6
20260906104516 61 0.0 1.0 0.00 0.00 0.00 73 1010.6
20260906104016 61 0.0 0.0 0.00 0.00 0.00 72 1010.7
20260906103516 62 315 1.0 2.0 0.00 0.00 0.00 71 1010.8
20260906103015 62 315 1.0 2.0 0.00 0.00 0.00 70 1010.6
20260906102515 61 0.0 1.0 0.00 0.00 0.00 71 1010.6
20260906102015 61 0.0 0.0 0.00 0.00 0.00 71 1010.5
20260906101538 62 0.0 2.0 0.00 0.00 0.00 71 1010.7
20260906101019 62 0.0 2.0 0.00 0.00 0.00 71 1010.6
20260906100537 61 0.0 0.0 0.00 0.00 0.00 71 1010.6
20260906100019 61 0.0 0.0 0.00 0.00 0.00 72 1010.7
20260906095518 61 0.0 1.0 0.00 0.00 0.00 71 1010.8
20260906095017 62 0.0 2.0 0.00 0.00 0.00 71 1010.8
20260906094515 62 0.0 0.0 0.00 0.00 0.00 69 1010.9
20260906094019 62 0.0 0.0 0.00 0.00 0.00 68 1010.9
20260906093518 63 0.0 1.0 0.00 0.00 0.00 67 1010.7
20260906093018 63 0 1.0 3.0 0.00 0.00 0.00 67 1010.8
20260906092516 63 292 1.0 2.0 0.00 0.00 0.00 67 1010.7
20260906092018 63 315 1.0 4.0 0.00 0.00 0.00 67 1010.7
20260906091517 63 0.0 2.0 0.00 0.00 0.00 66 1010.3
20260906091019 63 292 1.0 3.0 0.00 0.00 0.00 65 1010.1
20260906090518 63 0.0 2.0 0.00 0.00 0.00 65 1010.2
20260906090018 63 337 1.0 1.0 0.00 0.00 0.00 65 1010.1
20260906085517 64 0.0 2.0 0.00 0.00 0.00 64 1010.0
20260906085018 64 0.0 1.0 0.00 0.00 0.00 62 1010.1
20260906084517 65 0.0 1.0 0.00 0.00 0.00 61 1010.0
20260906084017 65 292 1.0 2.0 0.00 0.00 0.00 60 1010.3
20260906083518 66 315 1.0 2.0 0.00 0.00 0.00 60 1010.3
20260906083018 66 0.0 2.0 0.00 0.00 0.00 60 1010.3
20260906082517 66 0.0 2.0 0.00 0.00 0.00 60 1010.3
20260906082017 66 0.0 2.0 0.00 0.00 0.00 60 1010.3
20260906081517 66 0.0 2.0 0.00 0.00 0.00 59 1010.5
20260906080518 66 337 1.0 3.0 0.00 0.00 0.00 60 1010.3
20260906080018 66 315 1.0 4.0 0.00 0.00 0.00 59 1010.3
20260906075517 67 0 1.0 3.0 0.00 0.00 0.00 59 1010.3
20260906075017 67 0 1.0 3.0 0.00 0.00 0.00 58 1010.3
20260906074517 67 0.0 2.0 0.00 0.00 0.00 57 1010.2
20260906074017 67 0 1.0 2.0 0.00 0.00 0.00 56 1010.3
20260906073517 67 0 1.0 3.0 0.00 0.00 0.00 56 1010.2
20260906073018 67 0.0 2.0 0.00 0.00 0.00 55 1010.2
20260906072518 67 270 1.0 2.0 0.00 0.00 0.00 54 1010.2
20260906072017 67 0.0 2.0 0.00 0.00 0.00 54 1010.3
20260906071517 67 0.0 2.0 0.00 0.00 0.00 54 1010.3
20260906071017 67 270 1.0 2.0 0.00 0.00 0.00 55 1010.3
20260906070557 68 0.0 2.0 0.00 0.00 0.00 53 1010.4
20260906070017 67 270 2.0 4.0 0.00 0.00 0.00 54 1010.2
20260906065537 67 0 2.0 4.0 0.00 0.00 0.00 54 1010.1
20260906065017 68 0.0 2.0 0.00 0.00 0.00 52 1010.2
20260906064517 68 0 2.0 4.0 0.00 0.00 0.00 50 1010.1
20260906064017 69 292 1.0 2.0 0.00 0.00 0.00 50 1010.2
20260906063538 69 292 1.0 2.0 0.00 0.00 0.00 49 1010.2
20260906063027 69 315 1.0 3.0 0.00 0.00 0.00 49 1010.2
20260906062638 69 292 2.0 4.0 0.00 0.00 0.00 49 1010.0
20260906062019 70 315 1.0 3.0 0.00 0.00 0.00 48 1010.2
20260906061537 70 337 1.0 3.0 0.00 0.00 0.00 47 1010.3
20260906061017 70 292 3.0 4.0 0.00 0.00 0.00 49 1010.3
20260906060518 70 270 4.0 6.0 0.00 0.00 0.00 48 1010.3
20260906060021 69 270 4.0 6.0 0.00 0.00 0.00 50 1010.5
20260906055517 69 225 2.0 5.0 0.00 0.00 0.00 50 1010.6
20260906055017 69 247 5.0 6.0 0.00 0.00 0.00 49 1010.4
20260906054516 70 202 2.0 5.0 0.00 0.00 0.00 48 1010.4
20260906054016 70 90 2.0 3.0 0.00 0.00 0.00 49 1010.3
20260906053516 70 90 2.0 3.0 0.00 0.00 0.00 48 1010.1
20260906053016 70 90 1.0 3.0 0.00 0.00 0.00 48 1010.1
20260906052537 70 0.0 2.0 0.00 0.00 0.00 48 1010.0
20260906052016 72 90 1.0 3.0 0.00 0.00 0.00 45 1010.0
20260906051516 72 0.0 2.0 0.00 0.00 0.00 45 1010.2
20260906051016 72 90 1.0 3.0 0.00 0.00 0.00 45 1010.0
20260906050516 73 0.0 2.0 0.00 0.00 0.00 44 1009.9
20260906050016 72 67 2.0 5.0 0.00 0.00 0.00 45 1009.8
20260906045536 72 67 3.0 6.0 0.00 0.00 0.00 46 1010.0
20260906045016 71 67 1.0 5.0 0.00 0.00 0.00 47 1009.8
20260906044516 70 225 2.0 4.0 0.00 0.00 0.00 47 1009.6
20260906044036 69 225 4.0 6.0 0.00 0.00 0.00 49 1009.3
20260906043516 69 247 6.0 6.0 0.00 0.00 0.00 48 1009.3
20260906043016 71 247 2.0 5.0 0.00 0.00 0.00 45 1009.2
20260906042516 72 0.0 2.0 0.00 0.00 0.00 45 1009.1
20260906042016 71 0.0 2.0 0.00 0.00 0.00 45 1009.0
20260906041516 72 0.0 2.0 0.00 0.00 0.00 45 1008.8
20260906041016 73 315 1.0 3.0 0.00 0.00 0.00 43 1008.7
20260906040517 73 270 2.0 3.0 0.00 0.00 0.00 42 1008.8
20260906040016 73 337 2.0 4.0 0.00 0.00 0.00 42 1008.4
20260906035516 73 0.0 2.0 0.00 0.00 0.00 42 1008.2
20260906035036 73 315 1.0 3.0 0.00 0.00 0.00 43 1008.1
20260906034516 73 0 2.0 4.0 0.00 0.00 0.00 43 1008.5
20260906034136 73 22 1.0 2.0 0.00 0.00 0.00 42 1008.5
20260906033516 74 292 1.0 3.0 0.00 0.00 0.00 41 1008.5
20260906033036 74 292 1.0 3.0 0.00 0.00 0.00 41 1008.5
20260906032516 75 292 2.0 3.0 0.00 0.00 0.00 40 1008.5
20260906032016 74 0 1.0 2.0 0.00 0.00 0.00 41 1008.3
20260906031515 75 0 2.0 3.0 0.00 0.00 0.00 42 1008.3
20260906031015 75 0 2.0 6.0 0.00 0.00 0.00 43 1008.3
20260906030516 75 0 2.0 5.0 0.00 0.00 0.00 42 1008.1
20260906030016 75 0 2.0 6.0 0.00 0.00 0.00 41 1008.0
20260906025516 75 337 2.0 5.0 0.00 0.00 0.00 42 1008.0
20260906025016 75 0 2.0 4.0 0.00 0.00 0.00 41 1008.0
20260906024516 76 0.0 2.0 0.00 0.00 0.00 39 1007.8
20260906024016 76 22 3.0 6.0 0.00 0.00 0.00 37 1007.7
20260906023515 75 0.0 3.0 0.00 0.00 0.00 39 1007.7
20260906023016 76 0.0 0.0 0.00 0.00 0.00 38 1007.7
20260906022516 77 0.0 0.0 0.00 0.00 0.00 37 1007.9
20260906022016 78 0.0 0.0 0.00 0.00 0.00 35 1007.7
20260906021516 79 0.0 2.0 0.00 0.00 0.00 34 1007.6
20260906021016 79 0 1.0 2.0 0.00 0.00 0.00 34 1007.3
20260906020516 79 0 3.0 5.0 0.00 0.00 0.00 34 1007.3
20260906020016 79 22 4.0 7.0 0.00 0.00 0.00 34 1007.3
20260906015516 81 337 2.0 7.0 0.00 0.00 0.00 31 1007.3
20260906015016 81 292 4.0 6.0 0.00 0.00 0.00 31 1007.3
20260906014515 81 292 5.0 8.0 0.00 0.00 0.00 31 1006.9
20260906014037 81 292 4.0 9.0 0.00 0.00 0.00 31 1006.8
20260906013518 81 292 4.0 9.0 0.00 0.00 0.00 31 1006.6
20260906013018 80 315 2.0 7.0 0.00 0.00 0.00 32 1006.5
20260906012515 80 315 1.0 4.0 0.00 0.00 0.00 31 1006.6
20260906012017 81 315 1.0 4.0 0.00 0.00 0.00 31 1006.6
20260906011537 83 337 3.0 6.0 0.00 0.00 0.00 30 1006.7
20260906011018 83 292 6.0 9.0 0.00 0.00 0.00 29 1006.5
20260906010536 84 292 6.0 9.0 0.00 0.00 0.00 29 1006.5
20260906010018 84 270 6.0 10.0 0.00 0.00 0.00 29 1006.6
20260906005517 84 270 7.0 12.0 0.00 0.00 0.00 28 1006.7
20260906005018 85 270 7.0 13.0 0.00 0.00 0.00 28 1006.7
20260906004537 85 270 7.0 12.0 0.00 0.00 0.00 28 1008.5
20260906004038 85 270 7.0 13.0 0.00 0.00 0.00 27 1006.9
20260906003517 86 292 7.0 13.0 0.00 0.00 0.00 27 1006.8
20260906003015 86 270 7.0 10.0 0.00 0.00 0.00 27 1006.9
20260906002517 86 270 7.0 10.0 0.00 0.00 0.00 27 1006.8
20260906002017 86 270 6.0 10.0 0.00 0.00 0.00 26 1006.8
20260906001517 86 270 4.0 7.0 0.00 0.00 0.00 26 1006.8
20260906001017 86 270 5.0 7.0 0.00 0.00 0.00 26 1006.8
20260906000518 86 270 4.0 9.0 0.00 0.00 0.00 26 1007.0
20260906000018 86 270 5.0 7.0 0.00 0.00 0.00 26 1007.1
20260905235518 87 270 5.0 9.0 0.00 0.00 0.00 26 1007.0
20260905235017 87 270 5.0 8.0 0.00 0.00 0.00 25 1006.9
20260905234518 87 270 4.0 6.0 0.00 0.00 0.00 26 1006.9
20260905234017 87 270 5.0 9.0 0.00 0.00 0.00 25 1006.8
20260905233517 88 270 3.0 6.0 0.00 0.00 0.00 26 1006.9
20260905233037 89 0.0 0.0 0.00 0.00 0.00 24 1006.9
20260905232517 90 270 2.0 4.0 0.00 0.00 0.00 22 1006.8
20260905232037 90 22 2.0 4.0 0.00 0.00 0.00 23 1006.7
20260905231518 90 0 3.0 5.0 0.00 0.00 0.00 23 1006.7
20260905231018 92 22 3.0 10.0 0.00 0.00 0.00 24 1006.7
20260905230517 91 112 2.0 4.0 0.00 0.00 0.00 24 1006.7
20260905230017 89 112 1.0 3.0 0.00 0.00 0.00 23 1006.6
20260905225537 89 270 2.0 4.0 0.00 0.00 0.00 24 1006.4
20260905225038 90 270 3.0 5.0 0.00 0.00 0.00 23 1006.4
20260905224518 91 270 3.0 5.0 0.00 0.00 0.00 23 1006.5
20260905224017 91 270 3.0 6.0 0.00 0.00 0.00 24 1006.7
20260905223517 91 270 3.0 7.0 0.00 0.00 0.00 21 1006.7
20260905223017 92 247 2.0 6.0 0.00 0.00 0.00 23 1006.8
20260905222517 90 315 1.0 2.0 0.00 0.00 0.00 26 1006.8
20260905222018 89 315 1.0 3.0 0.00 0.00 0.00 25 1006.7
20260905221517 90 0 2.0 4.0 0.00 0.00 0.00 25 1006.7
20260905221017 90 337 1.0 3.0 0.00 0.00 0.00 25 1006.6
20260905220518 90 0.0 1.0 0.00 0.00 0.00 24 1006.6
20260905220019 90 0 2.0 4.0 0.00 0.00 0.00 22 1006.7
20260905215517 91 337 3.0 5.0 0.00 0.00 0.00 22 1006.9
20260905215017 91 45 2.0 4.0 0.00 0.00 0.00 23 1006.9
20260905214518 92 315 2.0 6.0 0.00 0.00 0.00 22 1007.2
20260905214017 93 0 3.0 8.0 0.00 0.00 0.00 22 1007.5
20260905213517 93 22 4.0 10.0 0.00 0.00 0.00 21 1007.5
20260905213017 94 0 4.0 7.0 0.00 0.00 0.00 22 1007.5
20260905212517 94 22 5.0 10.0 0.00 0.00 0.00 22 1007.4
20260905212037 94 0 5.0 10.0 0.00 0.00 0.00 22 1007.4
20260905211518 93 337 3.0 6.0 0.00 0.00 0.00 20 1007.4
20260905211017 93 0 2.0 5.0 0.00 0.00 0.00 21 1007.5
20260905210517 93 45 3.0 7.0 0.00 0.00 0.00 20 1007.6
20260905210017 93 337 3.0 10.0 0.00 0.00 0.00 21 1007.8
20260905205557 91 90 2.0 5.0 0.00 0.00 0.00 22 1007.9
20260905205017 91 90 1.0 3.0 0.00 0.00 0.00 21 1007.8
20260905204517 91 90 3.0 5.0 0.00 0.00 0.00 23 1007.8
20260905204037 91 22 2.0 8.0 0.00 0.00 0.00 22 1007.9
20260905203518 92 45 3.0 6.0 0.00 0.00 0.00 20 1007.9
20260905203017 92 90 4.0 9.0 0.00 0.00 0.00 20 1007.9
20260905202517 93 90 3.0 6.0 0.00 0.00 0.00 21 1008.1
20260905202017 93 112 4.0 8.0 0.00 0.00 0.00 21 1008.1
20260905201517 92 90 5.0 9.0 0.00 0.00 0.00 22 1008.2
20260905201019 92 90 6.0 12.0 0.00 0.00 0.00 22 1008.4
20260905200517 91 45 4.0 8.0 0.00 0.00 0.00 23 1008.3
20260905200037 91 337 4.0 9.0 0.00 0.00 0.00 23 1008.4
20260905195518 91 22 1.0 5.0 0.00 0.00 0.00 23 1008.4
20260905195017 91 90 4.0 8.0 0.00 0.00 0.00 23 1008.4
20260905194537 91 90 7.0 14.0 0.00 0.00 0.00 23 1008.4
20260905194017 91 90 8.0 11.0 0.00 0.00 0.00 22 1008.5
20260905193517 91 112 3.0 9.0 0.00 0.00 0.00 24 1008.6
20260905193017 90 90 3.0 10.0 0.00 0.00 0.00 24 1008.5
20260905192517 90 202 3.0 6.0 0.00 0.00 0.00 25 1008.7
20260905192017 91 67 4.0 9.0 0.00 0.00 0.00 23 1008.7
20260905191517 91 45 3.0 8.0 0.00 0.00 0.00 24 1008.7
20260905191017 90 112 4.0 11.0 0.00 0.00 0.00 25 1008.7
20260905190558 90 90 6.0 11.0 0.00 0.00 0.00 25 1008.8
20260905190037 90 112 5.0 11.0 0.00 0.00 0.00 24 1008.8
20260905185517 90 90 4.0 9.0 0.00 0.00 0.00 24 1008.8
20260905185017 89 135 4.0 12.0 0.00 0.00 0.00 25 1008.7
20260905184516 90 22 4.0 8.0 0.00 0.00 0.00 25 1008.8
20260905184017 89 112 2.0 8.0 0.00 0.00 0.00 25 1008.8
20260905183517 89 112 5.0 7.0 0.00 0.00 0.00 24 1009.0
20260905183017 89 90 2.0 7.0 0.00 0.00 0.00 25 1009.3
20260905182517 89 112 5.0 10.0 0.00 0.00 0.00 26 1009.4
20260905182018 88 112 6.0 10.0 0.00 0.00 0.00 27 1009.4
20260905181516 87 90 5.0 8.0 0.00 0.00 0.00 30 1009.3
20260905181016 87 90 6.0 9.0 0.00 0.00 0.00 27 1009.3
20260905180517 87 112 5.0 10.0 0.00 0.00 0.00 27 1009.5